Weather in Zhemchuzhina Kryma

Russia / Republic of Crimea     45°05′44″N   35°11′15″E
temp.,
°C
wind,
m/s
gust,
m/s
humid.,
%
clouds,
%
prec.,
mm/h
press.,
hPa
HPBL,
m
2 march, tue
tue200:00+1nnw349018 0.0 1029201
03:00+1nw358920 0.0 1030231
06:000nw359110 0.0 1029188
09:00+2nw34806 0.0 1030326
12:00+5nw44593 0.0 1030944
15:00+6wsw455612 0.0 10291169
18:00+5wsw566761 0.0 1027661
21:00+4wsw247977 0.0 1026193
3 march, wed
wed300:00+2w277329 0.0 1024207
03:00+2wsw4107725 0.0 1022298
06:00+4nw7128447 0.0 1021750
09:00+3nw7118273 0.0 1023878
12:00+3nnw797290 0.1 10251045
15:00+6nnw685667 0.1 10251205
18:00+5n47560 0.0 1026663
21:00+3wnw36620 0.0 1028220
4 march, thu
thu400:00+3w23640 0.0 102860
03:00+2wsw22660 0.0 102847
06:00+2sw23670 0.0 1027137
09:00+4sw35650 0.0 1027378
12:00+7ssw56560 0.0 1025988
15:00+8sw77550 0.0 1023887
18:00+5sw89680 0.0 1021550
21:00+4sw711780 0.0 1021525
5 march, fri
fri500:00+4ssw812790 0.0 1020504
03:00+4ssw811821 0.0 1019459
06:00+4ssw611862 0.0 1018393
09:00+5ssw610782 0.0 1018463
12:00+8ssw711660 0.0 1018559
15:00+9ssw811640 0.0 1016598
18:00+7ssw712752 0.0 1015506
21:00+7ssw9157931 0.0 1016493
6 march, sat
sat600:00+7ssw10167194 0.0 1015470
03:00+7sw7137797 0.0 1014286
06:00+6sw468796 0.0 1013138
09:00+8sw588198 0.0 1013193
12:00+12wsw3761100 0.0 1014615
15:00+6nnw71083100 0.1 1015576
18:00+3nnw81291100 0.2 1017611
21:00+1nnw81275100 0.7 1021996